RUK95K EGNX-EGAA

Flight info

Callsign RUK95K
Flight time N/A
Altitude 24000
Route TNT Q4 VABKA/N0378F280 UL8 BILVO UP6 TUPEM DCT REMSI DCT UVPOK M147 ROBOP M146 IPSET P6 BELZU
Aircraft B738/M-SDE2E3FGHIRWXY/LB1

Departure

Time 2026-05-05 20:07
Airport East Midlands Airport (EGNX)

Arrival

Time N/A
Airport Belfast International Airport (EGAA)
Time Latitude Longitude Altitude Speed Heading
2026-05-05 19:48 52.82729 -1.32934 302 ft 0 kts 178°
2026-05-05 20:01 52.82730 -1.32934 303 ft 2 kts 178°
2026-05-05 20:01 52.82754 -1.32935 303 ft 4 kts 178°
2026-05-05 20:01 52.82776 -1.32936 303 ft 4 kts 199°
2026-05-05 20:01 52.82793 -1.32910 301 ft 4 kts 248°
2026-05-05 20:02 52.82800 -1.32878 300 ft 0 kts 253°
2026-05-05 20:03 52.82799 -1.32881 300 ft 2 kts 253°
2026-05-05 20:04 52.82794 -1.32960 301 ft 13 kts 267°
2026-05-05 20:04 52.82791 -1.33116 300 ft 11 kts 274°
2026-05-05 20:04 52.82853 -1.33163 300 ft 11 kts 358°
2026-05-05 20:04 52.82919 -1.33198 304 ft 10 kts 300°
2026-05-05 20:05 52.82922 -1.33316 305 ft 10 kts 268°
2026-05-05 20:05 52.82919 -1.33468 307 ft 16 kts 268°
2026-05-05 20:05 52.82916 -1.33696 306 ft 25 kts 268°
2026-05-05 20:05 52.82908 -1.33999 302 ft 27 kts 268°
2026-05-05 20:06 52.82907 -1.34315 304 ft 27 kts 271°
2026-05-05 20:06 52.82906 -1.34611 302 ft 25 kts 266°
2026-05-05 20:06 52.82899 -1.34859 305 ft 13 kts 269°
2026-05-05 20:06 52.82960 -1.34936 304 ft 12 kts 358°
2026-05-05 20:07 52.83044 -1.34928 304 ft 12 kts 29°
2026-05-05 20:07 52.83066 -1.34739 301 ft 39 kts 88°
2026-05-05 20:07 52.83085 -1.33690 307 ft 139 kts 88°
2026-05-05 20:07 52.83117 -1.31784 961 ft 171 kts 88°
2026-05-05 20:08 52.83143 -1.29862 2300 ft 173 kts 89°
2026-05-05 20:08 52.83150 -1.27815 3421 ft 187 kts 93°
2026-05-05 20:08 52.83064 -1.25435 4034 ft 224 kts 86°
2026-05-05 20:08 52.83696 -1.23025 4516 ft 246 kts 47°
2026-05-05 20:09 52.85245 -1.21637 4981 ft 266 kts
2026-05-05 20:09 52.87061 -1.22073 5714 ft 268 kts 332°
2026-05-05 20:09 52.88394 -1.24207 6625 ft 273 kts 297°
2026-05-05 20:09 52.89098 -1.27125 7650 ft 275 kts 293°
2026-05-05 20:10 52.89961 -1.29990 8589 ft 280 kts 300°
2026-05-05 20:10 52.90986 -1.32762 9533 ft 284 kts 302°
2026-05-05 20:10 52.92088 -1.35517 10419 ft 291 kts 304°
2026-05-05 20:10 52.93287 -1.38392 10753 ft 318 kts 305°
2026-05-05 20:11 52.94621 -1.41519 10980 ft 345 kts 305°
2026-05-05 20:11 52.96043 -1.44832 11567 ft 358 kts 305°
2026-05-05 20:11 52.97495 -1.48216 12383 ft 362 kts 305°
2026-05-05 20:11 52.98954 -1.51647 13253 ft 365 kts 305°
2026-05-05 20:12 53.00416 -1.55130 14059 ft 370 kts 304°
2026-05-05 20:12 53.01896 -1.58662 14825 ft 375 kts 304°
2026-05-05 20:12 53.03392 -1.62237 15588 ft 379 kts 304°
2026-05-05 20:12 53.04900 -1.65862 16332 ft 383 kts 303°
2026-05-05 20:13 53.06033 -1.69886 17010 ft 388 kts 286°
2026-05-05 20:13 53.06743 -1.74226 17751 ft 391 kts 285°
2026-05-05 20:13 53.07444 -1.78619 18412 ft 396 kts 285°
2026-05-05 20:13 53.08162 -1.83066 19054 ft 400 kts 285°
2026-05-05 20:14 53.08899 -1.87551 19713 ft 404 kts 285°
2026-05-05 20:14 53.09654 -1.92081 20327 ft 408 kts 285°
2026-05-05 20:14 53.10418 -1.96644 20942 ft 412 kts 285°
2026-05-05 20:14 53.11193 -2.01263 21522 ft 415 kts 285°
2026-05-05 20:15 53.11971 -2.05903 22110 ft 418 kts 285°
2026-05-05 20:15 53.12754 -2.10588 22661 ft 422 kts 285°
2026-05-05 20:15 53.13541 -2.15314 23158 ft 426 kts 285°
2026-05-05 20:15 53.14375 -2.20065 23680 ft 429 kts 289°
2026-05-05 20:16 53.15559 -2.24637 24190 ft 432 kts 296°
2026-05-05 20:16 53.16921 -2.29115 24688 ft 434 kts 297°
2026-05-05 20:16 53.18295 -2.33544 25141 ft 438 kts 297°
2026-05-05 20:16 53.19687 -2.38068 25584 ft 441 kts 297°
2026-05-05 20:17 53.21093 -2.42712 26024 ft 444 kts 296°
2026-05-05 20:17 53.22472 -2.47333 26449 ft 446 kts 296°
2026-05-05 20:17 53.23852 -2.51998 26864 ft 449 kts 296°
2026-05-05 20:17 53.25235 -2.56690 27251 ft 452 kts 296°
2026-05-05 20:18 53.26606 -2.61349 27663 ft 454 kts 296°
2026-05-05 20:18 53.27997 -2.66077 28001 ft 455 kts 296°
2026-05-05 20:18 53.29634 -2.70613 27993 ft 456 kts 307°
2026-05-05 20:19 53.34226 -2.77727 27995 ft 450 kts 328°
2026-05-05 20:19 53.39699 -2.82868 28002 ft 452 kts 331°
2026-05-05 20:19 53.42452 -2.85436 27999 ft 453 kts 330°
2026-05-05 20:20 53.45191 -2.88055 28002 ft 454 kts 330°
2026-05-05 20:20 53.47925 -2.90710 27999 ft 454 kts 329°
2026-05-05 20:20 53.50603 -2.93531 27999 ft 454 kts 327°
2026-05-05 20:21 53.55851 -2.99433 28003 ft 454 kts 326°
2026-05-05 20:21 53.58481 -3.02364 27998 ft 453 kts 327°
2026-05-05 20:21 53.61112 -3.05276 27997 ft 452 kts 327°
2026-05-05 20:22 53.66362 -3.11093 28004 ft 451 kts 327°
2026-05-05 20:22 53.71521 -3.17088 27993 ft 450 kts 319°
2026-05-05 20:23 53.75588 -3.25055 28001 ft 450 kts 301°
2026-05-05 20:23 53.78783 -3.34148 27995 ft 450 kts 300°
2026-05-05 20:23 53.80384 -3.38699 28000 ft 450 kts 301°
2026-05-05 20:24 53.82006 -3.43232 28005 ft 451 kts 301°
2026-05-05 20:24 53.85269 -3.52300 28001 ft 451 kts 301°
2026-05-05 20:25 53.88507 -3.61402 28002 ft 451 kts 301°
2026-05-05 20:25 53.91718 -3.70467 28004 ft 451 kts 301°
2026-05-05 20:26 53.94898 -3.79649 27997 ft 451 kts 296°
2026-05-05 20:26 53.96767 -3.89773 28006 ft 451 kts 278°
2026-05-05 20:26 53.97200 -3.95039 27878 ft 450 kts 277°
2026-05-05 20:27 53.97611 -4.00291 27398 ft 444 kts 277°
2026-05-05 20:27 53.98037 -4.05446 26860 ft 438 kts 278°
2026-05-05 20:27 53.98479 -4.10539 26306 ft 433 kts 278°
2026-05-05 20:27 53.98940 -4.15561 25754 ft 428 kts 281°
2026-05-05 20:28 53.99758 -4.20389 25203 ft 423 kts 291°
2026-05-05 20:28 54.00995 -4.24893 24660 ft 419 kts 300°
2026-05-05 20:28 54.02613 -4.28986 24124 ft 415 kts 306°
2026-05-05 20:28 54.04309 -4.32920 23582 ft 411 kts 306°
2026-05-05 20:29 54.06005 -4.36886 23044 ft 407 kts 306°
2026-05-05 20:29 54.07621 -4.40738 22509 ft 403 kts 305°
2026-05-05 20:29 54.09231 -4.44621 21985 ft 400 kts 305°
2026-05-05 20:29 54.10816 -4.48488 21454 ft 396 kts 305°
2026-05-05 20:30 54.12383 -4.52330 20938 ft 393 kts 305°
2026-05-05 20:30 54.13939 -4.56143 20411 ft 390 kts 305°
2026-05-05 20:30 54.15480 -4.59920 19899 ft 387 kts 305°
2026-05-05 20:30 54.16985 -4.63703 19377 ft 384 kts 301°
2026-05-05 20:31 54.18183 -4.67753 18866 ft 381 kts 293°
2026-05-05 20:31 54.19206 -4.71901 18359 ft 378 kts 292°
2026-05-05 20:31 54.20198 -4.76034 17855 ft 375 kts 292°
2026-05-05 20:31 54.21182 -4.80136 17351 ft 372 kts 292°
2026-05-05 20:32 54.22166 -4.84208 16852 ft 369 kts 292°
2026-05-05 20:32 54.23149 -4.88247 16363 ft 366 kts 292°